TimeEDT,TemperatureF,Dew PointF,Humidity,Sea Level PressureIn,VisibilityMPH,Wind Direction,Wind SpeedMPH,Gust SpeedMPH,PrecipitationIn,Events,Conditions,WindDirDegrees,DateUTC
12:15 AM,68.0,66.9,96,30.08,10.0,Calm,Calm,-,N/A,,Clear,0,2013-08-07 04:15:00
12:35 AM,67.3,66.4,97,30.08,10.0,Calm,Calm,-,N/A,,Clear,0,2013-08-07 04:35:00
12:55 AM,67.1,66.7,99,30.08,10.0,Calm,Calm,-,N/A,,Clear,0,2013-08-07 04:55:00
1:15 AM,67.1,66.9,99,30.08,10.0,Calm,Calm,-,N/A,,Clear,0,2013-08-07 05:15:00
1:35 AM,67.1,66.7,99,30.07,10.0,South,3.5,-,N/A,,Clear,170,2013-08-07 05:35:00
1:55 AM,67.3,66.6,98,30.07,10.0,Calm,Calm,-,N/A,,Clear,0,2013-08-07 05:55:00
2:15 AM,66.6,66.4,99,30.07,7.0,Calm,Calm,-,N/A,,Clear,0,2013-08-07 06:15:00
2:35 AM,65.5,65.5,100,30.07,10.0,Calm,Calm,-,N/A,,Clear,0,2013-08-07 06:35:00
2:55 AM,65.7,65.7,100,30.07,7.0,Calm,Calm,-,N/A,,Clear,0,2013-08-07 06:55:00
3:15 AM,65.7,65.7,100,30.08,7.0,Calm,Calm,-,N/A,,Clear,0,2013-08-07 07:15:00
3:35 AM,65.3,65.3,100,30.08,4.0,Calm,Calm,-,N/A,,Scattered Clouds,0,2013-08-07 07:35:00
3:55 AM,64.9,64.9,100,30.08,4.0,Calm,Calm,-,N/A,,Scattered Clouds,0,2013-08-07 07:55:00
4:15 AM,64.9,64.9,100,30.08,3.0,Calm,Calm,-,N/A,,Clear,0,2013-08-07 08:15:00
4:35 AM,64.6,64.6,100,30.09,2.0,Calm,Calm,-,N/A,,Clear,0,2013-08-07 08:35:00
4:55 AM,63.5,63.5,100,30.09,3.0,Calm,Calm,-,N/A,,Clear,0,2013-08-07 08:55:00
5:15 AM,64.2,64.2,100,30.09,2.0,Calm,Calm,-,N/A,,Clear,0,2013-08-07 09:15:00
5:35 AM,64.2,64.2,100,30.09,7.0,Calm,Calm,-,N/A,,Clear,0,2013-08-07 09:35:00
5:55 AM,64.0,64.0,100,30.09,4.0,Calm,Calm,-,N/A,,Clear,0,2013-08-07 09:55:00
6:15 AM,64.4,64.4,100,30.10,7.0,Calm,Calm,-,N/A,,Mostly Cloudy,0,2013-08-07 10:15:00
6:35 AM,64.4,64.4,100,30.10,5.0,Calm,Calm,-,N/A,,Scattered Clouds,0,2013-08-07 10:35:00
6:55 AM,65.5,65.5,100,30.11,7.0,Calm,Calm,-,N/A,,Mostly Cloudy,0,2013-08-07 10:55:00
7:15 AM,67.1,67.1,100,30.11,7.0,Calm,Calm,-,N/A,,Mostly Cloudy,0,2013-08-07 11:15:00
7:35 AM,68.9,68.9,100,30.11,7.0,Calm,Calm,-,N/A,,Mostly Cloudy,0,2013-08-07 11:35:00
7:55 AM,70.2,69.8,99,30.11,10.0,Calm,Calm,-,N/A,,Mostly Cloudy,0,2013-08-07 11:55:00
8:15 AM,72.1,70.5,95,30.11,7.0,SE,3.5,-,N/A,,Overcast,130,2013-08-07 12:15:00
8:35 AM,73.2,70.7,92,30.11,7.0,Calm,Calm,-,N/A,,Overcast,0,2013-08-07 12:35:00
8:55 AM,74.3,71.4,91,30.12,7.0,SE,3.5,-,N/A,,Overcast,130,2013-08-07 12:55:00
9:15 AM,75.0,71.4,89,30.12,7.0,Calm,Calm,-,N/A,,Overcast,0,2013-08-07 13:15:00
9:35 AM,77.0,71.2,82,30.12,10.0,Calm,Calm,-,N/A,,Overcast,0,2013-08-07 13:35:00
9:55 AM,78.8,70.2,75,30.11,10.0,SSE,4.6,-,N/A,,Mostly Cloudy,160,2013-08-07 13:55:00
10:15 AM,81.1,68.7,66,30.11,10.0,South,5.8,-,N/A,,Scattered Clouds,170,2013-08-07 14:15:00
10:35 AM,82.2,67.5,61,30.11,10.0,SSE,5.8,-,N/A,,Clear,160,2013-08-07 14:35:00
10:55 AM,83.3,67.8,59,30.11,10.0,SSE,4.6,-,N/A,,Clear,160,2013-08-07 14:55:00
11:15 AM,81.9,67.3,61,30.11,10.0,SE,3.5,-,N/A,,Scattered Clouds,140,2013-08-07 15:15:00
11:35 AM,82.9,67.3,59,30.11,10.0,SE,4.6,-,N/A,,Mostly Cloudy,140,2013-08-07 15:35:00
11:55 AM,84.7,67.3,56,30.11,10.0,SSE,5.8,-,N/A,,Overcast,160,2013-08-07 15:55:00
12:15 PM,85.1,68.2,57,30.10,10.0,SSE,8.1,-,N/A,,Scattered Clouds,150,2013-08-07 16:15:00
12:35 PM,85.8,68.4,56,30.10,10.0,SE,8.1,-,N/A,,Clear,140,2013-08-07 16:35:00
12:55 PM,87.1,68.4,54,30.10,10.0,SSE,8.1,-,N/A,,Clear,150,2013-08-07 16:55:00
1:15 PM,86.9,67.8,53,30.10,10.0,SSE,5.8,-,N/A,,Clear,150,2013-08-07 17:15:00
1:35 PM,88.2,67.6,50,30.10,10.0,South,8.1,-,N/A,,Scattered Clouds,170,2013-08-07 17:35:00
1:55 PM,87.3,67.5,52,30.09,10.0,ESE,5.8,-,N/A,,Scattered Clouds,120,2013-08-07 17:55:00
2:15 PM,88.9,68.4,51,30.08,10.0,SSE,5.8,-,N/A,,Scattered Clouds,150,2013-08-07 18:15:00
2:35 PM,88.0,68.0,51,30.07,10.0,SSE,10.4,16.1,N/A,,Scattered Clouds,160,2013-08-07 18:35:00
2:55 PM,87.4,68.4,53,30.07,10.0,SE,8.1,-,N/A,,Scattered Clouds,140,2013-08-07 18:55:00
3:15 PM,89.4,69.3,51,30.07,10.0,SSE,5.8,-,N/A,,Mostly Cloudy,160,2013-08-07 19:15:00
3:35 PM,87.1,68.9,55,30.05,10.0,South,5.8,-,N/A,,Mostly Cloudy,170,2013-08-07 19:35:00
3:55 PM,87.6,68.2,52,30.05,10.0,South,6.9,-,N/A,,Mostly Cloudy,190,2013-08-07 19:55:00
4:15 PM,86.9,68.9,55,30.05,10.0,South,4.6,-,N/A,,Scattered Clouds,180,2013-08-07 20:15:00
4:35 PM,86.4,68.5,55,30.05,10.0,SSE,8.1,-,N/A,,Scattered Clouds,150,2013-08-07 20:35:00
4:55 PM,85.5,69.3,58,30.05,10.0,South,6.9,-,N/A,,Scattered Clouds,180,2013-08-07 20:55:00
5:15 PM,85.6,68.7,57,30.05,10.0,SSE,8.1,-,N/A,,Clear,150,2013-08-07 21:15:00
5:35 PM,84.9,70.0,61,30.05,10.0,SSE,5.8,-,N/A,,Clear,150,2013-08-07 21:35:00
5:55 PM,85.3,69.4,59,30.04,10.0,SE,8.1,-,N/A,,Clear,140,2013-08-07 21:55:00
6:15 PM,84.6,68.7,59,30.04,10.0,SSE,6.9,-,N/A,,Scattered Clouds,150,2013-08-07 22:15:00
6:35 PM,85.1,68.2,57,30.05,10.0,South,5.8,-,N/A,,Clear,170,2013-08-07 22:35:00
6:55 PM,83.7,67.8,59,30.05,10.0,SSE,3.5,-,N/A,,Clear,150,2013-08-07 22:55:00
7:15 PM,83.3,68.0,60,30.05,10.0,South,3.5,-,N/A,,Clear,170,2013-08-07 23:15:00
7:35 PM,81.1,68.7,66,30.05,10.0,SSE,4.6,-,N/A,,Clear,160,2013-08-07 23:35:00
7:55 PM,80.4,68.9,68,30.05,10.0,SSE,4.6,-,N/A,,Clear,160,2013-08-07 23:55:00
8:15 PM,79.7,69.1,70,30.06,10.0,SSE,4.6,-,N/A,,Clear,160,2013-08-08 00:15:00
8:35 PM,78.4,69.3,73,30.06,10.0,SSE,3.5,-,N/A,,Clear,150,2013-08-08 00:35:00
8:55 PM,77.4,69.3,76,30.06,10.0,Calm,Calm,-,N/A,,Clear,0,2013-08-08 00:55:00
9:15 PM,75.9,69.8,81,30.07,10.0,Calm,Calm,-,N/A,,Clear,0,2013-08-08 01:15:00
9:35 PM,75.9,70.2,82,30.07,10.0,Calm,Calm,-,N/A,,Clear,0,2013-08-08 01:35:00
9:55 PM,75.2,70.5,85,30.08,10.0,Calm,Calm,-,N/A,,Clear,0,2013-08-08 01:55:00
10:15 PM,75.2,70.9,86,30.08,10.0,SE,3.5,-,N/A,,Clear,140,2013-08-08 02:15:00
10:35 PM,75.0,71.4,89,30.08,10.0,Calm,Calm,-,N/A,,Clear,0,2013-08-08 02:35:00
10:55 PM,74.5,71.6,91,30.08,10.0,Calm,Calm,-,N/A,,Clear,0,2013-08-08 02:55:00
11:15 PM,74.3,72.1,93,30.08,10.0,South,3.5,-,N/A,,Clear,170,2013-08-08 03:15:00
11:35 PM,74.3,72.5,94,30.08,10.0,Calm,Calm,-,N/A,,Clear,0,2013-08-08 03:35:00
11:55 PM,74.3,72.5,94,30.08,10.0,Calm,Calm,-,N/A,,Clear,0,2013-08-08 03:55:00